Homestead AFB, FL

11:34 PM EDT on June 27, 2017 (GMT -0400)
Dade County-Homestead Regional

Weather History for KHST - November, 2013

Change the Weather History Date:

Friday, November 8, 2013

  Actual Average Record
Temperature  
Mean Temperature 76 °F -  
Max Temperature 82 °F 81 °F 88 °F (1946)
Min Temperature 70 °F 61 °F 46 °F (1969)
Cooling Degree Days 11    
Growing Degree Days 26 (Base 50)    
Moisture  
Dew Point 70 °F    
Average Humidity 82    
Maximum Humidity 94    
Minimum Humidity 66    
Precipitation  
Precipitation 0.00 in - - ()
Sea Level Pressure  
Sea Level Pressure 30.00 in    
Wind  
Wind Speed 10 mph (NNE)    
Max Wind Speed 23 mph    
Max Gust Speed 30 mph    
Visibility 10 miles    
Events      
Averages and records for this station are not official NWS values.
T = Trace of Precipitation, MM = Missing Value Source: NWS Daily Summary

Daily Weather History Graph

Daily Weather History Graph

Search for Another Location

Airport or City:

Trip Planner

Search our weather history database for the weather conditions in past years. The results will help you decide how hot, cold, wet, or windy it might be!

Date:

Astronomy

Nov. 08, 2013 Rise Set
Actual Time 6:34 AM EST 5:36 PM EST
Civil Twilight 6:10 AM EST 5:59 PM EST
Nautical Twilight 5:42 AM EST 6:27 PM EST
Astronomical Twilight 5:15 AM EST 6:54 PM EST
Moon 11:28 AM EST (11/8) 10:53 PM EST (11/8)
Length of Visible Light 11h 49m
Length of Day
11h 01m
Waxing Crescent, 33% of the Moon is Illuminated
Nov 8
Waxing Crescent
Nov 10
First Quarter
Nov 17
Full
Nov 25
Last Quarter
Dec 2
New

Hourly Weather History & Observations

Time (EST) Temp. Heat Index Dew Point Humidity Pressure Visibility Wind Dir Wind Speed Gust Speed Precip Events Conditions
12:58 AM 73.0 °F - 69.4 °F 88% 29.97 in 10.0 mi NNW 6.9 mph - N/A   Clear
1:58 AM 71.8 °F - 69.1 °F 91% 29.96 in 10.0 mi NNW 8.1 mph - N/A   Clear
2:58 AM 71.2 °F - 68.7 °F 92% 29.96 in 10.0 mi North 3.5 mph - N/A   Clear
3:58 AM 70.2 °F - 68.4 °F 94% 29.95 in 10.0 mi NNW 6.9 mph - N/A   Clear
4:58 AM 70.2 °F - 67.8 °F 92% 29.97 in 10.0 mi North 9.2 mph - N/A   Clear
5:58 AM 70.2 °F - 67.1 °F 90% 29.98 in 10.0 mi NNW 8.1 mph - N/A   Clear
6:58 AM 70.0 °F - 67.3 °F 91% 30.00 in 10.0 mi North 8.1 mph - N/A   Clear
7:58 AM 73.2 °F - 69.3 °F 87% 30.01 in 10.0 mi North 6.9 mph - N/A   Clear
8:58 AM 77.9 °F - 70.7 °F 78% 30.02 in 10.0 mi North 11.5 mph - N/A   Clear
9:58 AM 81.3 °F 85.9 °F 72.1 °F 74% 30.03 in 10.0 mi NE 15.0 mph - N/A   Partly Cloudy
10:58 AM 81.1 °F 86.0 °F 72.9 °F 76% 30.01 in 10.0 mi NE 20.7 mph 29.9 mph N/A   Scattered Clouds
11:58 AM 80.8 °F 84.6 °F 71.1 °F 72% 30.00 in 10.0 mi NE 16.1 mph - N/A   Partly Cloudy
12:58 PM 82.4 °F 87.0 °F 71.4 °F 69% 29.97 in 10.0 mi NE 23.0 mph - N/A   Scattered Clouds
1:58 PM 82.8 °F 86.9 °F 70.3 °F 66% 29.96 in 10.0 mi NE 21.9 mph - N/A   Scattered Clouds
2:58 PM 81.3 °F 85.2 °F 70.5 °F 70% 29.97 in 10.0 mi NE 15.0 mph - N/A   Mostly Cloudy
3:58 PM 80.4 °F 83.4 °F 69.1 °F 68% 29.97 in 10.0 mi NE 19.6 mph 23.0 mph N/A   Partly Cloudy
4:58 PM 80.2 °F 83.2 °F 69.1 °F 69% 29.98 in 10.0 mi NE 15.0 mph - N/A   Scattered Clouds
5:58 PM 77.7 °F - 69.4 °F 76% 30.00 in 10.0 mi NE 11.5 mph - N/A   Partly Cloudy
6:58 PM 77.7 °F - 70.3 °F 78% 30.01 in 10.0 mi NE 11.5 mph - N/A   Scattered Clouds
7:58 PM 78.1 °F - 70.7 °F 78% 30.03 in 10.0 mi NE 10.4 mph - N/A   Mostly Cloudy
8:58 PM 75.2 °F - 71.4 °F 88% 30.04 in 10.0 mi NNW 8.1 mph - N/A   Partly Cloudy
9:58 PM 74.5 °F - 71.8 °F 91% 30.04 in 10.0 mi NNW 8.1 mph - N/A   Clear
10:58 PM 73.8 °F - 71.6 °F 93% 30.04 in 10.0 mi North 6.9 mph - N/A   Partly Cloudy
11:58 PM 74.5 °F - 72.0 °F 92% 30.03 in 10.0 mi NNE 6.9 mph - N/A   Partly Cloudy